CHINASAT 19

导读

中星19号(CHINASAT 19)是中国于2022年11月5日在西昌卫星发射中心,通过长征三号乙增强型运载火箭成功发射的高通量通信卫星,由中国空间技术研究院抓总研制,采用东方红四号增强型卫星平台,定点于东经163度地球静止轨道。它配备C、Ku和Ka多频段通信载荷,覆盖中国东部、东南亚及北美太平洋航线,提供高速通信与互联网接入,服务远洋运输和航空通信,是我国高通量卫星网络的重要延伸,设计寿命15年。

Basic Information
目录编号:
54230
目录名称:
CHINASAT 19
国际标识:
2022-148A
轨道中心:
EARTH
卫星名称:
CHINASAT 19
卫星全名:
--
卫星状态:
在轨 (已飞行1406 天)
发射日期:
2022-11-05 UTC
国别 :
中国 (CN)
星等 :
--
This satellite is enrolled in the Space Conjunction Data Service (SCDS) and the current flight risk assessment level is: No High Risk
Orbit Information
数据来源 国际轨道数据 AOE轨道数据
星历时间 2026-09-11T15:47:22+0800
10小时前
查看轨道信息
2026-09-10T23:00:00+0800
1天前
查看轨道信息
半长轴 42164.672km 42164.896km
偏心率 0.0004461 0.0004399
轨道倾角 0.027° 0.025°
近地点辐角 296.775° 301.462°
升交点赤经 242.271° 236.350°
平近点角 91.306° 200.005°
近地点 35767.725km 35768.21km
远地点 35805.345km 35805.308km
周期 1436.094分钟 1436.105分钟
每日圈数 1.00272 1.002712
Detailed Information
使用方式:
暂无
2D Orbit Map
3D Orbit Map
Orbit Altitude Analysis Chart
Orbit Inclination Analysis Chart
Orbit Comprehensive Analysis Chart
View Comprehensive Chart
Miss Distance Evolution Trend with All Objects
Collision Probability Evolution Trend with All Objects